This demonstration page uses our WeatherBlox Daily Observations layout. Learn more.

Left ArrowRight Arrow

38.89511, -77.03637

Hourly Observations for March 27, 2021

Temp ( °F °C ) Dew Point ( °F °C ) Humidity (%) Winds ( mph kmh ) Pressure ( in mb ) Visibility ( mi km ) Precip ( " mm )
12:52 am 00:52 Mostly Clear 59 15 42 5.6 54 54 N 12 19 30.09 1019 10 16.0934 0 0
1:52 am 01:52 Mostly Clear 59 15 42 5.6 54 54 N 15 24 30.08 1019 10 16.0934 0 0
2:52 am 02:52 Mostly Clear 56 13.3 41 5 57 57 NNW 7 11 30.11 1020 10 16.0934 0 0
3:52 am 03:52 Mostly Clear 57 13.9 41 5 55 55 NNW 3 6 30.12 1020 10 16.0934 0 0
4:52 am 04:52 Mostly Clear 55 12.8 42 5.6 62 62 NNW 5 7 30.13 1020 10 16.0934 0 0
5:52 am 05:52 Clear 52 11.1 42 5.6 69 69 NNW 7 11 30.14 1021 10 16.0934 0 0
6:52 am 06:52 Clear 53 11.7 44 6.7 72 72 Calm 30.17 1022 10 16.0934 0 0
7:52 am 07:52 Sunny 53 11.7 46 7.8 77 77 S 5 7 30.19 1023 10 16.0934 0 0
8:52 am 08:52 Mostly Sunny 56 13.3 47 8.3 72 72 S 8 13 30.21 1023 10 16.0934 0 0
9:52 am 09:52 Mostly Sunny 60 15.6 45 7.2 58 58 S 7 11 30.21 1023 10 16.0934 0 0
10:52 am 10:52 Mostly Sunny 64 17.8 43 6.1 46 46 S 6 9 30.2 1023 10 16.0934 0 0
11:52 am 11:52 Mostly Sunny 67 19.4 44 6.7 44 44 S 8 13 30.19 1022 10 16.0934 0 0
12:52 pm 12:52 Mostly Cloudy 68 20 46 7.8 45 45 S 9 15 30.17 1022 10 16.0934 0 0
1:52 pm 13:52 Mostly Cloudy 69 20.6 47 8.3 45 45 SSE 9 15 30.14 1021 10 16.0934 0 0
2:52 pm 14:52 Mostly Cloudy 69 20.6 49 9.4 49 49 S 12 19 30.1 1019 10 16.0934 0 0
3:52 pm 15:52 Cloudy 70 21.1 45 7.2 41 41 S 10 17 30.09 1019 10 16.0934 0 0
4:52 pm 16:52 Cloudy 68 20 49 9.4 51 51 S 10 17 30.07 1018 10 16.0934 0 0
5:52 pm 17:52 Cloudy 67 19.4 49 9.4 53 53 SSW 8 13 30.08 1019 10 16.0934 0 0
6:52 pm 18:52 Cloudy 66 18.9 47 8.3 50 50 S 9 15 30.11 1020 10 16.0934 0 0
7:52 pm 19:52 Cloudy 64 17.8 48 8.9 56 56 SSE 13 20 30.08 1019 10 16.0934 0 0
8:52 pm 20:52 Cloudy 63 17.2 48 8.9 58 58 S 15 24 30.08 1019 10 16.0934 0 0
9:52 pm 21:52 Cloudy 61 16.1 49 9.4 65 65 S 13 20 30.09 1019 10 16.0934 0 0
10:52 pm 22:52 Cloudy 60 15.6 50 10 70 70 S 15 24 30.08 1019 10 16.0934 0 0
11:52 pm 23:52 Cloudy 59 15 50 10 72 72 S 13 20 30.05 1018 10 16.0934 0 0

Powered by AerisWeather